USA 17

Satellite information

Favourite Embed

Satellite Type and Status

PAYLOADIN ORBIT

Key statistics

Satellite USA 17 at a glance.

Uptime

14552

Days in orbit

Revolutions

≈ 13.7

Per day

Orbit

LEO

Low Earth Orbit

Inclination

63.3

Latest

Satellite identification and parameters

Extended collection of information and parameters for USA 17.

Object identification

Identified? True

Debris? False

Object name: USA 17

International designator: 1986-014F

Object number (NORAD): 16625

Object ID (CCSDS): 16625

Country: UNITED STATES OF AMERICA (US)

Current information (Y/N): Y

RCS size: LARGE

Orbital parameters

Period: 104.921 minutes

Inclination: 63.2996 deg

SMA: 7368.894 km

Apoapsis: 1582.248 km

Periapsis: 399.27 km

RAAN: 253.0488 deg

Eccentricy: 0.08026838

Argument of periapsis: 112.3065 deg

Mean anomaly: 256.5033 deg

Mean motion: 13.72458788 rev/day

Mean motion (dot): 0.00007211 rev/day2

B* drag term: 0.00064788808 1/REarth

Two-line elements (TLE)

Creation date: Dec. 12, 2025, 10:14 a.m.

Reference frame: TEME

Reference center: EARTH

Epoch: Dec. 12, 2025, 3:51 a.m. UTC

TLE line 0: 0 USA 17

TLE line 1: 1 16625U 86014F 25346.16050437 .00007211 00000-0 64789-3 0 9993

TLE line 2: 2 16625 63.2996 253.0488 0802684 112.3065 256.5033 13.72458788317135

Live tracking on map

Real-time ground track for satellite USA 17.

In-orbit conjunctions

There are no conjunctions computed for USA 17, at the moment. Check back to stay up to date, as we update our databases every day.

Go to all conjunctions

Associated space launch

The Parcae satellites were passive ELINT satellites. MSD satellites were dispensers of triplets of ocean surveillance satellites.

USA 17 was lifted into orbit during the mission ‘Atlas H | Parcae 8A,B,C & MSD 8’, on board a Atlas H space rocket.

The launch took place on Feb. 9, 1986, 10:06 a.m. from Space Launch Complex 3E.

For more information about the launch, click the button.

Launch to space Atlas H | Parcae 8A,B,C & MSD 8
Atlas H | Parcae 8A,B,C & MSD 8

Agency: N/A

Status: Launch Successful

Launch date: Feb. 9, 1986, 10:06 a.m. UTC

Rocket: Atlas H

Launch pad: Space Launch Complex 3E

Location: Vandenberg SFB, CA, USA

...

Latest news about this satellite

There are no fresh news available about this satellite. Check back as we update our databases every day.


Newsletter sign-up

Weekly statistics, charts and insights to help you stay on top of the space industry.